TimeCST,TemperatureF,Dew PointF,Humidity,Sea Level PressureIn,VisibilityMPH,Wind Direction,Wind SpeedMPH,Gust SpeedMPH,PrecipitationIn,Events,Conditions,WindDirDegrees,DateUTC
12:53 AM,54.0,51.1,90,30.23,10.0,North,11.5,-,N/A,,Overcast,360,2012-12-05 06:53:00
1:03 AM,53.6,50.0,88,30.23,10.0,North,11.5,-,N/A,,Overcast,360,2012-12-05 07:03:00
1:53 AM,53.1,48.9,86,30.24,10.0,North,8.1,-,N/A,,Overcast,360,2012-12-05 07:53:00
2:05 AM,53.6,48.2,82,30.24,10.0,North,8.1,-,N/A,,Overcast,10,2012-12-05 08:05:00
2:17 AM,53.6,48.2,82,30.25,10.0,North,9.2,-,N/A,,Overcast,350,2012-12-05 08:17:00
2:53 AM,52.0,46.9,83,30.25,10.0,North,9.2,-,N/A,,Overcast,10,2012-12-05 08:53:00
3:53 AM,52.0,46.0,80,30.24,10.0,North,9.2,-,N/A,,Overcast,10,2012-12-05 09:53:00
4:53 AM,51.1,45.0,80,30.25,10.0,North,9.2,-,N/A,,Overcast,360,2012-12-05 10:53:00
5:53 AM,50.0,44.1,80,30.26,10.0,North,8.1,-,N/A,,Overcast,350,2012-12-05 11:53:00
6:53 AM,48.9,44.1,83,30.28,10.0,North,8.1,-,N/A,,Overcast,350,2012-12-05 12:53:00
8:53 AM,50.0,44.1,80,30.28,10.0,NNE,11.5,-,N/A,,Overcast,20,2012-12-05 14:53:00
9:53 AM,50.0,44.1,80,30.29,10.0,North,10.4,-,N/A,,Overcast,10,2012-12-05 15:53:00
10:53 AM,52.0,45.0,77,30.27,10.0,NNE,8.1,-,N/A,,Overcast,30,2012-12-05 16:53:00
11:53 AM,52.0,46.0,80,30.24,10.0,North,8.1,-,N/A,,Overcast,360,2012-12-05 17:53:00
12:53 PM,53.1,46.9,80,30.21,10.0,North,8.1,-,N/A,,Overcast,360,2012-12-05 18:53:00
1:53 PM,54.0,46.9,77,30.19,10.0,NNE,5.8,-,N/A,,Overcast,30,2012-12-05 19:53:00
2:53 PM,55.0,46.9,74,30.19,10.0,North,6.9,-,N/A,,Overcast,10,2012-12-05 20:53:00
3:27 PM,55.4,46.4,72,30.18,10.0,NE,5.8,-,N/A,,Overcast,40,2012-12-05 21:27:00
3:53 PM,55.9,48.0,75,30.17,10.0,NE,6.9,-,N/A,,Overcast,40,2012-12-05 21:53:00
4:53 PM,55.9,48.0,75,30.17,10.0,NE,4.6,-,N/A,,Overcast,40,2012-12-05 22:53:00
5:19 PM,55.4,46.4,72,30.17,10.0,North,4.6,-,N/A,,Overcast,10,2012-12-05 23:19:00
5:53 PM,55.4,48.2,77,30.15,10.0,NE,3.5,-,N/A,,Overcast,40,2012-12-05 23:53:00
6:53 PM,55.0,48.0,77,30.15,10.0,Calm,Calm,-,N/A,,Overcast,0,2012-12-06 00:53:00
7:53 PM,55.9,48.0,75,30.15,10.0,Calm,Calm,-,N/A,,Overcast,0,2012-12-06 01:53:00
8:53 PM,55.0,48.9,80,30.14,10.0,Calm,Calm,-,N/A,,Overcast,0,2012-12-06 02:53:00
9:53 PM,55.0,48.9,80,30.12,10.0,North,3.5,-,N/A,,Overcast,360,2012-12-06 03:53:00
10:17 PM,55.4,48.2,77,30.12,10.0,North,3.5,-,N/A,,Overcast,360,2012-12-06 04:17:00
10:53 PM,55.0,48.9,80,30.10,10.0,Calm,Calm,-,N/A,,Overcast,0,2012-12-06 04:53:00
11:06 PM,55.4,48.2,77,30.10,10.0,Calm,Calm,-,N/A,,Overcast,0,2012-12-06 05:06:00
11:40 PM,53.6,48.2,82,30.08,10.0,Calm,Calm,-,N/A,,Overcast,0,2012-12-06 05:40:00
11:53 PM,54.0,48.9,83,30.08,10.0,Calm,Calm,-,N/A,,Overcast,0,2012-12-06 05:53:00